Location: Gorze? G�rny
(49.8500°N, 19.5000°E)
Time: 04:15:15
(UTC+00:00)

ATLAS 2AS CENTAUR R/B - Pass Details

Date: 13 May 2021
Orbit: 949 x 1263 km, 63.7° (Epoch: 07 May)

Event Time Altitude Azimuth Distance (km) Brightness Sun altitude
Rises 19:54:16 0° 316° (NW) 4,134 7.9 -12.6°
Reaches altitude 10° 19:57:08 10° 318° (NW) 3,130 6.7 -12.8°
Maximum altitude 20:04:38 77° 45° (NE) 1,159 2.9 -13.6°
Enters shadow 20:10:00 18° 130° (SE) 2,356 3.9 -14.1°
